Theta_e
334 335 333 327 325 325 327 330 333 334 336 337 339 340 341 341 343 344 344 344 345 344 345 347 348 350 350 350 351 351 351 350 351 351 351 349 349 348 348 348 348 348 349 349 350 351 352 355 356 357 359 359 359 360 360 362 363 363 362 363 360 361 358
333 335 335 329 325 325 327 331 333 335 336 338 339 341 341 342 344 344 344 344 345 345 345 347 349 350 350 350 351 351 351 350 352 355 353 352 353 351 350 350 349 349 350 351 351 352 354 354 356 356 357 359 359 360 359 361 362 362 362 360 360 359 362
332 334 335 330 326 326 327 330 333 335 337 338 340 341 341 342 344 345 344 344 344 345 346 347 349 350 350 350 350 351 351 351 352 353 352 350 351 351 352 352 351 350 350 352 352 352 355 355 356 357 357 358 358 359 360 360 362 362 362 361 360 360 360
332 333 336 332 328 327 327 330 333 335 337 339 340 341 342 343 345 346 346 345 344 345 345 346 349 349 350 350 350 351 351 351 352 353 353 352 351 352 352 353 353 352 352 352 353 354 355 356 355 356 360 358 358 359 359 360 361 362 362 361 360 360 361
331 333 336 334 330 328 327 328 332 334 336 339 341 343 343 344 345 346 346 347 346 345 346 347 349 350 351 352 351 351 352 351 351 353 354 353 354 353 352 352 354 354 353 354 354 356 356 357 355 356 356 358 357 358 359 360 360 362 362 361 360 360 360
332 332 335 336 333 331 330 329 330 334 336 337 339 341 343 344 345 346 347 347 347 348 348 348 349 351 350 351 352 352 352 352 352 353 354 354 353 353 352 352 354 355 354 355 356 355 355 357 357 356 355 357 357 358 359 359 360 361 361 361 361 360 360
331 332 332 336 339 336 333 331 330 332 335 338 340 342 343 344 345 346 347 348 349 347 348 348 349 350 350 351 352 353 352 351 351 351 353 353 354 353 353 353 355 355 356 357 356 356 355 355 357 357 357 357 359 358 359 360 361 362 362 361 360 360 361
333 333 335 335 337 340 340 336 335 334 334 337 340 339 341 344 345 346 347 348 349 349 348 349 349 350 351 351 352 351 352 352 352 352 352 352 352 353 353 353 354 355 357 355 356 357 356 356 356 357 357 357 358 359 359 361 361 361 362 361 360 359 359
332 334 335 336 337 338 337 335 335 336 336 337 337 338 341 345 345 346 347 348 349 349 349 350 350 351 352 351 351 351 352 352 352 352 351 351 351 352 353 353 354 356 355 355 356 357 357 357 356 357 357 356 357 359 359 360 360 361 361 360 360 359 359
331 333 334 335 335 336 336 337 337 337 337 337 337 338 341 343 346 348 349 349 349 349 350 350 351 352 352 352 352 352 352 352 352 351 351 351 351 351 352 353 354 356 355 355 356 355 357 357 357 357 357 355 357 357 358 359 359 360 360 360 360 359 359
332 332 333 334 334 335 336 336 336 337 338 338 338 339 340 342 345 346 347 348 349 350 353 354 354 353 352 352 352 352 351 351 351 351 351 351 351 351 352 353 354 355 355 355 355 355 356 356 357 357 356 355 355 356 356 357 358 359 359 360 360 360 359
330 331 331 332 333 333 334 335 337 337 338 339 342 340 341 343 345 346 345 346 348 348 350 352 355 354 353 353 352 352 351 351 351 351 351 351 351 351 351 352 353 353 355 355 355 355 355 355 355 355 355 356 357 357 357 357 357 358 359 359 359 359 359
330 330 330 331 332 332 334 334 335 337 338 339 340 341 341 342 343 346 345 346 348 349 350 350 352 353 353 353 352 352 351 351 351 351 351 351 352 352 352 352 352 352 353 355 355 354 354 354 355 356 355 355 356 356 357 357 357 358 358 359 359 359 359
331 330 330 330 330 331 332 334 335 336 336 337 339 340 341 342 343 344 344 344 346 347 348 349 350 350 353 352 352 351 351 351 352 351 351 352 352 352 352 352 352 352 354 355 354 353 354 354 353 354 355 355 355 356 357 357 357 357 358 358 358 358 358
328 329 330 330 330 331 332 333 334 336 338 339 340 339 340 341 342 343 344 345 346 346 346 347 346 347 348 347 348 351 351 352 351 351 352 353 351 351 351 351 352 352 353 354 354 354 354 355 354 354 354 355 355 355 355 355 355 356 357 357 357 357 357
328 328 329 329 330 331 332 333 334 335 337 338 339 340 340 340 340 341 342 344 345 345 346 347 346 346 345 345 347 349 350 351 352 351 351 351 350 351 351 351 351 351 351 352 353 354 355 355 355 354 353 353 354 355 354 355 356 358 357 358 358 357 356
327 328 329 330 331 332 333 333 334 335 335 337 338 339 340 340 341 342 343 344 345 345 346 346 346 346 346 345 348 350 349 349 350 351 350 350 350 350 350 351 350 350 349 349 351 353 354 354 352 353 353 353 353 354 355 356 357 354 343 344 352 360 358
324 325 325 328 330 332 332 333 333 333 334 335 336 340 340 340 341 342 342 344 344 345 346 346 346 346 346 346 345 344 345 346 346 348 347 347 345 344 345 346 344 345 347 349 347 349 350 350 352 352 352 353 353 353 354 356 357 342 340 341 341 354 360
323 323 324 325 327 329 330 331 331 331 332 334 334 335 337 340 341 341 342 343 345 346 345 344 345 345 344 343 343 343 344 345 346 346 345 344 342 342 343 343 343 342 344 346 348 351 349 350 350 351 351 351 352 352 354 355 347 338 339 338 338 340 358
322 323 323 324 326 327 329 330 330 330 331 332 333 334 336 338 339 342 343 344 345 344 343 343 342 342 342 342 341 341 342 341 341 341 341 342 341 340 340 341 340 341 343 344 344 345 347 349 349 350 350 350 350 352 353 354 349 337 335 335 336 337 346
320 322 322 323 323 325 326 327 328 329 329 330 332 333 333 334 337 340 341 341 340 341 342 342 341 340 341 341 341 341 341 341 340 340 340 340 341 341 340 340 340 341 343 342 341 342 344 347 348 349 351 351 351 350 350 352 344 338 334 331 332 335 346
318 320 320 321 323 323 323 324 325 326 328 330 330 330 331 331 334 336 336 337 338 339 339 339 338 339 339 339 339 340 341 341 340 342 341 341 341 341 341 341 341 340 341 342 341 341 341 342 345 348 348 348 349 349 349 350 331 330 331 331 331 335 344
317 318 319 321 321 322 323 324 324 325 326 326 326 327 328 330 331 331 332 333 334 335 336 337 337 338 339 339 340 340 340 341 341 340 340 341 341 341 343 341 341 341 342 341 341 341 341 342 342 345 348 348 349 348 347 347 328 323 323 324 325 333 341
317 318 318 318 320 321 322 323 323 323 323 323 324 325 327 328 328 328 328 329 330 331 332 333 334 336 337 337 339 340 340 340 340 339 340 340 339 339 341 342 340 340 345 342 342 341 341 342 343 343 346 348 348 348 348 346 331 322 320 321 323 333 340
316 316 317 318 318 318 319 320 322 322 321 321 321 323 325 326 327 326 325 326 326 327 326 327 329 332 334 336 338 339 340 340 339 338 338 338 338 340 340 341 340 342 345 345 344 345 344 344 343 345 346 347 349 351 353 348 336 318 319 318 319 330 338
314 315 317 318 319 319 319 320 319 318 318 318 319 322 324 324 323 325 324 324 325 324 324 326 327 329 332 335 336 336 337 338 340 340 339 337 338 338 338 341 343 341 341 343 344 344 344 345 346 344 346 347 348 349 350 348 342 326 313 314 317 322 335
314 315 317 319 320 321 317 317 317 316 317 317 319 321 322 322 321 321 323 323 322 323 324 326 328 329 330 331 333 333 333 333 333 332 332 332 332 333 332 330 331 337 340 340 340 341 342 343 343 343 343 343 344 346 344 344 338 322 311 310 313 319 332
314 315 316 320 323 320 316 316 316 316 316 317 317 319 321 321 320 320 320 320 321 323 326 326 327 328 328 328 328 328 329 330 329 328 328 329 329 327 325 327 328 331 336 341 341 340 340 340 341 338 335 335 336 336 336 340 337 328 315 311 310 313 321
312 313 313 315 316 319 318 315 314 314 315 315 316 316 317 320 319 319 318 317 319 323 326 326 325 326 326 325 325 326 326 325 326 327 328 328 327 325 324 325 326 327 331 334 339 340 339 337 337 334 331 331 330 330 330 332 334 330 325 314 310 310 312
311 311 313 315 317 318 318 314 314 314 314 314 315 315 315 316 317 318 317 315 320 323 325 325 325 324 323 323 321 320 321 322 322 322 323 324 325 326 325 325 326 327 327 330 336 336 334 333 332 331 329 326 325 326 325 325 326 328 328 324 313 311 310
310 310 311 313 315 318 315 314 313 313 313 313 314 315 315 315 315 318 315 316 321 323 322 324 326 325 323 320 318 319 317 318 318 319 319 319 320 320 321 324 326 325 326 330 332 333 330 330 332 329 327 325 322 322 322 323 322 322 324 325 323 315 312
309 310 312 313 314 316 314 313 313 313 313 312 313 314 316 314 314 315 314 317 320 322 323 323 324 324 324 324 321 318 317 316 315 316 316 317 317 319 320 320 322 325 325 327 332 332 331 331 328 326 324 322 321 320 320 320 319 319 319 321 322 321 317
308 309 310 312 315 316 312 313 313 314 314 313 311 312 314 313 314 315 316 318 317 321 323 324 322 323 322 322 322 321 321 319 316 313 314 314 314 315 316 318 319 318 320 321 325 329 330 328 326 325 323 321 320 320 320 318 317 315 316 315 315 316 318
307 309 310 310 313 313 309 308 310 312 313 312 310 310 312 312 312 313 314 315 316 318 323 325 323 319 319 321 321 319 317 318 321 315 312 312 312 310 311 312 315 316 314 313 312 319 322 323 322 321 321 320 319 318 317 316 316 314 311 313 312 312 312
306 308 310 312 313 315 309 313 310 307 312 312 309 308 310 310 311 312 313 314 315 317 323 325 325 322 320 320 322 323 322 318 315 313 312 311 311 309 307 308 310 313 315 315 313 311 315 319 318 318 318 317 317 317 315 315 314 313 303 306 302 304 305
307 307 310 310 315 311 314 315 309 308 314 313 308 306 310 308 310 311 312 313 314 315 319 322 322 320 320 322 321 321 320 319 317 315 315 312 312 312 310 308 302 304 311 312 312 306 302 306 314 315 317 316 316 315 314 314 313 301 295 293 293 294 295
307 308 310 311 313 312 312 312 317 315 315 313 313 310 311 312 310 309 311 312 313 314 315 317 321 319 319 323 324 323 322 321 319 319 316 315 314 314 314 311 310 298 299 306 307 301 296 295 297 300 304 311 315 316 305 303 299 294 293 293 293 294 295
307 309 311 312 312 312 313 314 315 315 315 310 312 310 309 310 309 309 311 311 312 313 313 314 317 316 317 319 323 325 322 320 321 321 320 319 318 315 314 312 311 311 302 298 300 301 296 295 295 296 297 298 300 310 315 305 298 293 293 295 298 298 296
Wind_Speed
8 8 7 9 10 11 12 12 12 12 11 11 11 12 12 10 10 10 10 11 12 11 10 10 11 9 10 9 8 7 7 7 6 7 7 7 7 7 7 6 7 7 6 6 6 7 6 5 5 5 5 5 5 5 5 4 4 3 3 3 2 2 2
10 9 8 9 10 11 12 12 12 11 11 11 11 12 11 12 10 11 11 12 13 13 13 12 11 10 10 9 8 8 8 8 7 6 6 6 5 6 7 8 8 7 7 7 6 6 5 6 6 5 6 5 5 5 5 4 4 4 3 3 3 3 2
11 9 8 8 9 11 11 11 11 11 12 11 11 11 12 12 12 13 12 11 12 11 10 11 11 11 10 9 9 8 8 8 8 8 8 7 8 7 7 7 7 7 7 7 6 5 5 5 6 6 6 6 5 5 5 5 5 5 4 4 3 3 3
10 11 10 9 10 9 11 12 13 11 11 12 13 14 13 13 12 12 12 13 14 12 12 12 11 11 10 10 10 9 9 9 9 8 8 7 8 6 6 6 6 5 5 6 6 5 5 6 6 6 6 6 6 5 5 5 5 5 5 4 4 4 4
9 9 9 9 8 8 8 9 10 11 12 12 12 12 14 13 12 11 10 11 12 14 14 13 10 10 9 10 8 8 9 10 8 8 7 7 7 6 7 6 6 6 7 6 5 6 6 6 5 6 6 6 6 5 5 5 5 5 4 4 4 4 4
1 5 7 7 7 8 9 10 10 11 11 12 12 11 11 11 10 12 11 12 11 10 9 10 11 11 10 10 9 8 8 8 8 8 8 7 7 7 6 7 6 6 6 6 5 6 6 6 6 6 6 6 5 5 5 5 5 5 5 4 4 4 4
8 11 10 5 3 7 6 6 7 8 8 9 8 9 9 10 12 12 11 11 11 12 12 12 12 11 11 10 10 10 10 9 9 9 7 7 8 7 7 6 6 6 6 4 6 5 6 6 6 6 6 6 6 6 6 6 5 5 4 4 5 5 5
7 8 9 7 10 9 4 6 7 5 4 1 1 5 8 9 9 9 11 12 12 11 11 12 11 10 10 9 9 11 10 9 8 7 7 8 7 7 7 6 6 6 5 6 6 6 6 6 5 5 6 6 6 6 6 6 6 5 5 5 5 5 4
7 10 9 8 7 6 6 7 8 8 9 9 7 4 3 2 5 9 12 11 11 11 12 12 12 11 10 10 10 10 9 8 8 8 8 8 7 7 7 7 6 6 6 7 6 6 6 6 6 7 7 6 6 6 6 6 6 5 6 6 6 6 5
5 8 8 9 10 7 6 5 4 4 5 5 5 6 6 4 2 1 3 4 6 10 12 12 10 10 9 9 10 10 9 9 8 8 8 8 7 8 7 6 6 6 7 7 6 6 6 6 6 6 7 7 7 7 6 6 6 6 6 7 7 6 7
3 3 5 8 11 10 8 5 5 4 3 3 5 6 6 5 4 5 4 3 1 2 2 1 2 5 9 10 11 10 10 9 8 8 9 9 7 8 7 7 7 6 7 6 6 6 6 6 6 6 6 6 7 7 7 7 7 7 7 6 6 6 6
4 4 5 7 6 6 9 8 5 3 3 3 3 3 3 5 5 5 6 8 7 6 5 4 4 4 5 5 7 9 10 10 9 9 9 9 8 8 8 7 7 7 6 7 7 6 6 6 5 6 7 7 7 7 7 7 7 8 7 7 7 6 6
4 5 5 5 5 5 5 7 8 5 3 3 4 5 6 6 3 2 4 4 5 6 8 9 9 8 8 7 7 6 8 9 10 9 9 9 8 7 7 7 7 7 7 6 6 6 6 6 6 6 6 7 6 7 7 7 6 7 6 6 6 6 6
7 6 6 5 5 5 3 3 4 7 6 6 7 8 8 8 10 10 8 8 6 5 5 3 2 0 3 7 9 9 10 9 8 8 8 8 7 7 7 6 6 7 6 6 6 6 6 6 7 6 6 6 6 7 6 6 5 6 6 6 6 6 6
9 10 9 7 6 6 7 7 5 2 1 3 6 5 4 6 8 8 7 8 9 8 8 8 9 10 8 4 5 8 9 9 8 7 7 7 7 7 7 7 7 6 6 6 6 5 6 6 7 7 7 7 7 6 6 6 6 5 6 6 7 6 6
10 10 9 9 7 7 7 7 7 5 3 3 3 3 4 6 7 8 10 9 9 10 10 10 11 11 10 11 14 12 9 8 8 8 8 7 8 7 7 6 6 6 6 7 7 6 6 6 7 7 7 7 7 6 5 6 5 8 12 11 7 7 6
10 11 11 9 8 8 8 8 8 7 7 5 3 3 3 5 5 4 6 7 9 12 12 12 13 12 13 14 13 9 5 6 8 8 8 8 7 5 4 1 1 4 4 4 4 5 6 6 8 7 7 7 7 7 6 6 7 12 13 14 14 8 7
11 11 11 10 9 8 8 8 9 9 8 8 8 4 3 4 4 6 7 7 8 8 6 8 10 11 11 9 7 6 7 5 5 5 6 6 7 7 7 6 6 4 3 2 1 2 2 4 6 7 7 7 8 7 7 7 10 14 14 14 14 12 7
11 11 11 11 11 11 10 9 8 7 7 6 5 5 6 4 5 7 6 7 8 7 7 6 6 5 5 5 6 5 5 3 2 4 6 5 5 6 6 6 6 7 6 4 1 3 3 5 5 6 6 6 8 8 8 7 10 13 13 13 13 14 10
10 10 10 11 11 11 9 8 7 7 8 8 8 7 7 5 5 2 3 4 4 6 8 8 6 3 3 3 5 7 7 8 6 3 5 2 6 6 6 6 5 5 2 2 3 3 4 4 5 5 6 7 7 7 6 6 7 10 12 12 13 13 11
8 8 8 8 9 8 8 9 9 10 10 9 8 8 8 9 7 4 5 4 4 4 5 9 7 6 5 5 4 4 6 8 8 7 4 5 5 3 6 7 6 6 6 6 7 7 5 1 4 5 6 7 7 7 7 6 9 9 10 10 10 9 7
8 9 9 7 9 9 9 9 9 10 9 9 10 10 10 8 7 7 6 6 5 5 6 4 7 7 7 7 5 4 4 6 6 4 7 6 4 1 2 4 5 5 5 4 2 2 4 6 6 6 5 4 4 4 6 2 3 3 3 1 1 3 4
7 7 7 7 7 7 7 8 9 9 10 11 12 12 11 9 9 9 8 8 6 5 4 6 6 5 7 7 6 6 5 5 7 4 4 6 6 6 6 5 4 4 4 4 4 4 4 3 1 5 4 2 1 1 1 2 3 2 3 4 5 5 3
7 7 7 7 7 7 8 9 9 10 10 11 12 12 10 10 9 9 10 9 8 8 7 7 6 6 7 7 7 7 5 4 4 3 3 5 4 2 2 4 3 5 4 5 5 5 5 3 4 6 6 4 3 1 1 1 4 6 3 2 1 2 1
6 7 7 7 7 8 8 8 8 9 10 11 11 11 10 10 10 11 10 10 10 10 10 10 9 7 6 6 6 6 5 3 4 4 3 4 4 1 3 4 5 4 4 4 3 3 4 3 5 5 5 5 3 4 2 3 2 5 5 4 2 1 1
7 8 8 8 8 7 6 8 10 11 11 11 10 9 9 9 10 12 11 10 10 11 10 9 7 6 7 8 8 8 7 6 6 6 5 4 3 1 1 3 3 3 3 4 4 3 3 4 4 5 4 2 2 2 4 4 3 5 6 6 4 1 0
6 6 7 8 8 7 7 8 8 8 9 8 9 8 8 9 11 11 10 10 11 11 9 8 8 8 7 7 8 8 7 6 6 6 6 5 2 2 3 4 5 5 3 4 3 3 3 2 1 2 2 2 2 2 1 1 4 6 7 7 5 4 3
6 7 6 6 8 7 7 7 8 9 9 9 9 8 8 8 10 9 9 10 11 9 8 8 8 7 7 8 8 7 8 8 7 8 6 5 5 6 5 5 5 4 4 3 4 4 3 2 1 2 4 5 6 6 7 8 10 5 8 7 7 6 4
7 7 7 7 8 8 7 8 8 8 7 7 8 8 7 9 10 9 9 10 9 7 7 7 8 8 9 9 9 9 9 8 9 7 6 6 5 5 5 4 5 5 4 3 3 3 2 1 1 3 5 5 5 6 5 6 6 10 7 8 8 7 6
5 6 6 6 5 5 5 6 6 7 7 7 7 7 8 8 9 9 10 10 8 7 6 7 8 8 9 8 8 8 8 7 7 7 6 6 5 4 5 6 6 5 5 4 2 1 1 3 4 4 5 5 5 4 5 4 4 8 9 6 7 7 7
5 6 5 6 5 3 5 5 5 6 8 7 8 7 7 8 8 9 11 8 7 7 7 6 7 7 7 7 6 6 5 6 6 7 6 6 6 7 6 6 5 4 5 4 3 3 4 4 4 4 4 4 4 4 4 4 4 4 6 8 5 6 7
4 3 4 4 3 3 3 4 5 6 7 8 8 7 6 7 7 9 6 6 6 6 6 6 7 7 6 5 5 6 6 7 6 7 7 7 6 6 6 6 6 6 6 5 4 4 3 5 5 6 5 4 3 3 3 3 3 3 4 5 7 6 8
1 1 2 3 1 1 3 4 5 5 5 6 7 6 6 7 6 4 4 5 6 5 5 7 6 6 6 6 5 5 5 6 5 5 6 6 6 5 6 6 5 6 7 7 7 6 5 5 5 5 5 5 3 3 2 3 3 3 3 4 4 4 5
2 0 0 1 1 2 4 4 5 3 4 4 3 4 4 5 6 6 6 6 5 5 4 6 5 6 6 6 5 5 5 5 8 6 5 5 6 6 6 6 6 6 7 7 6 7 5 4 5 4 4 3 3 3 3 3 2 3 4 4 4 4 3
2 2 1 0 0 0 2 1 3 3 3 2 2 3 4 5 5 5 6 6 6 5 4 5 5 5 6 5 5 5 5 4 4 4 4 4 5 7 6 5 4 4 5 6 5 4 4 5 5 5 4 3 3 3 2 2 3 3 3 4 5 4 4
3 3 2 2 1 1 1 1 1 1 3 2 2 3 3 4 4 4 5 5 5 5 5 4 5 5 5 4 5 4 4 3 3 4 4 4 4 5 6 8 8 6 5 4 9 10 10 8 5 4 4 3 3 4 4 4 2 2 3 4 6 7 7
4 3 4 3 1 2 2 2 1 1 2 2 3 3 3 4 3 3 4 5 5 5 5 4 4 4 5 4 4 4 3 3 3 3 4 4 3 4 4 4 6 9 9 7 7 8 9 9 8 8 6 3 1 2 4 5 5 7 6 6 6 7 8
5 4 3 3 4 4 3 2 2 2 3 3 2 2 3 4 4 4 4 4 4 4 5 5 4 4 4 4 3 4 4 3 3 2 2 3 3 3 4 5 5 5 6 6 7 8 9 10 11 11 10 9 6 3 1 2 4 5 3 3 4 6 9
Wind_Direction
182 186 191 188 187 188 188 186 181 181 180 181 183 183 180 178 178 176 179 182 189 188 190 187 189 188 190 193 188 180 182 182 185 190 190 193 193 186 189 194 194 198 195 196 207 208 216 203 205 207 206 209 210 212 215 216 214 213 212 204 190 215 233
188 187 187 188 189 191 191 186 181 179 181 183 184 183 182 181 177 180 184 185 189 189 186 188 188 191 190 192 187 181 184 187 187 192 192 192 194 195 195 191 195 199 198 205 205 210 201 207 197 203 210 212 217 211 214 213 214 215 211 204 203 223 220
192 186 182 183 193 193 187 183 183 182 182 184 184 184 186 185 182 185 183 184 190 192 188 190 191 190 190 186 183 189 189 187 188 190 187 189 192 194 198 196 201 199 202 201 202 203 197 199 196 202 204 208 213 208 209 212 214 210 210 203 210 216 218
191 187 182 181 192 194 185 182 183 185 187 185 186 186 189 189 187 188 186 186 187 185 187 193 190 190 189 186 188 186 190 193 193 194 193 189 191 190 187 199 204 208 202 204 200 196 197 194 191 199 207 204 211 210 203 213 214 210 209 197 210 211 214
192 185 173 173 182 182 175 180 185 184 188 192 192 191 190 190 187 186 190 192 190 190 192 189 188 187 190 189 188 188 189 189 194 197 193 190 188 183 189 195 194 200 209 206 199 198 197 191 192 192 204 201 208 207 212 213 215 208 210 203 216 213 222
244 198 190 174 171 173 174 181 181 184 187 190 192 192 194 190 188 192 193 190 194 197 195 192 192 188 188 191 190 188 185 190 190 191 191 185 181 183 193 199 195 201 205 209 195 201 197 194 193 194 196 201 205 207 211 214 217 208 208 206 222 224 224
51 30 359 325 148 154 158 161 173 180 188 196 196 195 190 187 192 195 190 194 193 192 193 194 196 192 194 188 193 186 187 187 188 191 188 181 182 187 196 194 197 201 207 191 205 196 197 199 202 198 199 200 204 207 208 206 212 204 201 203 219 226 228
83 73 66 35 355 2 41 76 44 34 35 36 186 203 198 200 198 195 195 198 195 196 195 193 194 194 194 192 191 194 191 190 188 187 186 189 187 191 189 193 196 196 186 197 205 193 200 202 203 201 199 203 207 211 210 209 208 204 195 203 211 224 221
98 101 100 89 80 64 44 57 88 94 95 95 81 37 336 278 231 211 204 200 199 197 199 194 194 194 191 190 190 196 195 188 187 185 188 191 193 197 194 194 194 186 190 197 195 193 199 202 203 205 203 209 213 211 213 210 210 203 198 205 208 215 220
111 105 102 101 102 97 90 89 99 98 110 105 109 104 109 120 126 0 326 269 234 211 203 195 193 191 190 190 195 194 191 192 190 186 189 194 196 199 199 193 193 184 193 196 190 191 197 199 202 203 205 210 212 210 213 210 209 205 204 207 207 213 217
356 77 102 114 121 124 123 111 110 147 161 133 150 151 142 139 128 132 138 103 36 354 343 319 263 217 197 192 194 192 193 194 190 191 195 200 196 198 195 198 195 189 193 191 196 197 191 198 196 199 201 209 209 208 210 210 207 206 209 210 209 212 216
32 23 59 77 73 97 120 131 134 136 137 120 102 146 158 158 155 162 169 172 164 159 154 156 147 169 212 226 208 197 196 196 193 197 199 201 200 196 194 194 197 194 196 192 199 197 197 199 196 199 207 213 215 213 214 212 208 207 210 209 209 211 217
37 39 34 40 79 109 125 144 151 146 151 178 170 182 184 172 165 212 205 202 201 187 183 172 178 175 178 183 201 210 213 202 200 197 197 201 202 197 194 196 193 193 197 194 199 196 197 203 204 210 212 217 216 220 218 217 214 214 213 213 210 211 213
25 32 35 36 45 41 53 83 101 141 183 231 231 208 194 180 180 200 197 202 192 170 144 103 93 53 193 187 192 201 208 209 205 199 197 196 197 199 199 196 196 197 195 189 198 203 203 203 207 211 209 214 213 220 218 217 218 217 220 218 215 212 216
30 33 31 28 19 17 21 13 21 61 80 268 261 257 240 202 187 184 195 201 191 175 178 173 175 182 162 146 255 234 212 198 195 194 192 189 186 192 197 198 198 195 193 195 197 201 210 210 210 212 211 217 215 216 211 214 217 210 211 214 219 216 220
37 35 30 20 14 20 30 30 22 12 357 307 291 260 228 231 216 208 206 206 194 190 195 186 192 191 186 189 201 206 214 203 195 190 187 186 188 192 194 197 200 197 200 202 199 203 210 218 219 216 215 214 215 212 210 216 217 218 217 214 211 210 217
34 33 29 26 25 28 32 30 26 15 9 354 302 262 225 217 228 247 246 227 212 204 199 193 199 197 191 201 207 187 172 193 201 191 189 187 179 162 139 115 202 209 212 219 217 215 213 215 218 219 220 217 214 210 211 217 221 218 215 216 217 210 207
31 30 25 22 23 28 35 36 29 26 18 9 358 316 224 209 211 211 217 216 225 230 223 210 210 204 198 193 174 147 142 189 225 194 173 166 166 151 136 126 112 91 49 12 353 179 182 230 237 234 227 227 227 222 217 218 223 219 217 216 217 218 210
30 30 30 26 25 31 34 34 28 19 14 7 5 8 351 309 223 200 202 207 217 215 207 223 257 253 211 162 150 132 107 96 234 224 173 162 142 132 134 144 149 152 151 157 114 325 250 214 215 241 250 249 245 238 231 229 223 221 220 219 218 218 218
26 26 30 31 31 33 26 25 23 17 11 7 3 358 349 11 341 243 174 201 220 209 209 202 188 188 165 139 134 130 118 110 104 17 331 110 129 127 131 143 175 209 212 140 126 155 244 254 231 235 229 227 234 244 246 239 238 222 223 223 222 219 214
18 23 27 23 24 20 16 14 16 16 14 9 -0 4 10 12 7 29 63 54 45 338 254 200 172 146 141 134 137 152 156 148 152 138 115 4 19 82 141 156 167 162 159 172 179 179 168 158 270 223 207 207 209 216 221 224 223 221 221 225 229 235 227
19 30 29 22 31 23 16 12 11 11 10 8 13 12 14 9 9 28 36 36 41 53 36 44 98 101 98 99 97 69 53 75 67 94 130 139 137 131 260 195 160 155 186 190 166 107 139 192 206 244 231 201 188 215 236 289 9 345 353 313 213 203 224
18 28 34 27 21 14 10 12 18 16 18 19 17 15 12 8 18 28 31 28 24 37 51 79 63 71 93 92 88 85 85 93 115 120 144 138 152 181 202 201 169 180 215 206 167 178 204 211 45 297 277 256 222 167 31 43 79 106 151 157 158 162 197
19 30 36 27 18 19 18 17 20 23 25 24 23 15 9 13 26 35 35 27 22 31 31 46 58 79 89 84 82 81 73 85 87 94 86 89 105 130 280 257 229 230 225 221 194 186 197 205 187 215 262 269 239 176 195 150 172 179 151 74 47 285 258
21 20 25 30 28 22 15 16 24 26 25 24 21 10 12 15 30 41 37 30 27 28 28 23 25 22 51 70 83 86 83 81 91 79 58 46 50 64 254 239 233 236 262 258 242 204 155 193 248 241 227 236 263 271 224 200 136 104 104 115 123 213 265
31 17 15 15 30 33 32 26 31 29 24 18 6 4 14 15 34 36 32 26 29 34 25 16 15 13 44 62 68 66 54 47 56 62 64 58 44 56 260 288 252 211 209 252 242 245 218 191 209 236 259 272 273 282 265 271 98 69 65 70 87 89 311
57 49 30 23 22 25 37 34 38 35 29 15 6 6 12 25 39 35 27 26 29 25 17 12 20 25 36 46 48 54 60 56 54 58 53 50 53 19 10 5 349 349 328 292 316 302 300 287 273 281 338 2 356 266 258 293 103 60 70 78 86 105 128
50 44 37 32 32 33 39 43 37 31 25 17 13 6 11 30 42 32 27 29 21 2 360 17 26 36 46 50 57 56 51 50 47 46 41 27 25 29 19 358 356 355 332 293 245 261 280 302 302 58 58 49 52 55 50 61 80 86 59 63 65 64 77
56 57 42 31 30 24 42 46 37 34 23 13 17 14 6 29 42 31 28 27 0 339 1 23 32 39 43 42 42 43 45 42 38 34 31 32 25 35 28 360 2 354 349 341 305 253 256 315 108 105 84 67 52 49 44 41 60 70 71 54 50 46 50
56 63 59 47 46 32 44 51 40 39 29 20 20 20 18 27 38 33 32 15 341 351 12 32 39 43 45 43 44 43 42 46 50 47 35 24 20 28 30 17 6 3 357 336 344 120 88 76 80 91 92 79 68 51 48 43 39 48 54 63 52 36 26
56 57 57 57 38 40 44 48 39 37 34 23 20 19 25 26 37 32 25 351 349 4 12 24 46 51 47 48 46 44 37 40 39 35 30 23 18 20 17 23 24 23 354 350 19 66 89 91 92 83 77 74 69 58 41 44 53 37 28 31 37 29 22
52 36 47 62 46 41 41 43 49 43 38 26 14 17 26 27 38 38 349 336 359 5 18 31 42 49 48 52 53 45 38 38 28 27 25 22 18 23 21 19 10 15 9 9 25 58 74 88 89 91 82 75 64 59 60 55 60 39 19 10 5 5 358
75 62 76 71 17 72 49 57 50 42 41 37 5 10 6 24 26 26 338 356 353 359 28 49 48 42 35 39 49 53 53 60 43 34 28 24 23 20 18 23 22 25 23 18 17 25 55 61 67 73 86 89 57 27 27 32 29 22 19 19 0 350 343
154 78 324 289 327 88 83 80 83 56 51 43 1 1 11 22 15 357 1 358 360 354 39 60 60 56 43 31 41 53 43 52 63 59 48 36 36 28 20 16 22 36 34 22 12 14 16 35 51 51 47 45 53 27 14 26 30 28 4 1 349 335 334
214 215 221 214 214 109 92 73 55 35 55 24 340 3 27 26 5 359 2 356 350 356 36 63 67 71 64 52 51 50 58 55 61 66 70 65 60 56 46 32 18 33 50 43 45 35 21 15 30 34 7 17 34 56 13 350 29 29 2 337 339 332 331
226 249 271 260 325 116 161 118 119 333 338 313 344 3 27 16 2 350 350 353 0 10 35 36 57 59 54 55 67 67 64 53 55 60 70 74 74 84 70 60 62 42 44 34 24 42 52 62 56 17 353 345 347 347 342 351 6 358 9 349 335 328 310
188 224 242 258 282 303 312 297 335 345 322 324 326 358 359 354 355 353 356 358 1 21 34 33 52 52 31 34 44 69 67 62 56 47 63 68 80 67 85 73 55 51 49 43 39 40 42 53 49 40 37 45 304 11 52 38 23 1 353 347 338 325 319
192 206 206 205 211 231 263 295 292 290 295 320 353 3 355 342 332 336 343 10 2 20 42 40 56 55 37 31 28 60 70 40 51 40 48 43 57 73 95 96 93 59 26 41 42 31 35 31 29 30 38 43 37 11 348 58 38 11 346 347 18 24 38